SL-12 R/B(2)

基本信息
目录编号:
33471
目录名称:
SL-12 R/B(2)
国际标识:
2008-067F
轨道中心:
EARTH
物体状态:
在轨
发射日期:
2008-12-25 UTC
国别:
俄罗斯(独联体) (CIS)
轨道信息
数据来源: 国际轨道数据
星历时间: 2026-07-13T15:36:29+0800
半长轴: 25496.309km
偏心率: 0.0004635
轨道倾角: 64.839°
近地点辐角: 346.978°
升交点赤经: 68.055°
平近点角: 192.122°
近地点: 19106.354km
远地点: 19129.99km
周期: 675.267分钟
每日圈数: 2.132489
详细信息
发射场:
TTMTR
轨道高度:
MEO
数据来源:
AOE Integration Group
参考系:
TEME
时间系统:
UTC
历元类型:
SGP4
2D轨道图
3D轨道图
轨道高度分析图
轨道倾角分析图
轨道综合分析图
查看轨道综合分析图